[[{"header":{"parameterUnit":"m.s-1","parameterCategory":2,"la1":30.2991,"la2":30.254,"lo1":-89.0895,"lo2":-89.0444,"dy":0.0017,"dx":0.0017,"nx":28,"ny":28,"refTime":"2023-10-26T21:00:00:Z","depth":"0","parameterNumber":2,"parameterNumberName":"U-component_of_CURRENTS"},"data":[0,0,0,0,0,0,0,0,0,0,0,0,0,0,0,0,0,0,0,0,0,0,0,0,0,0,0,0,0,0,0,0,0,0,0,0,0,0,0,0,0,0,0,0,0,0,0,0,0,0,0,0,0,0,0,0,0,0,0.2048,0.2049,0,0.214,0.2142,0.2143,0.2208,0.2208,0.2208,0.2208,0.23,0.2302,0.2304,0,0,0,0,0,0,0,0,0,0,0,0,0,0.1984,0.1985,0.2048,0.2049,0.205,0.214,0.2142,0.2143,0.2208,0.2208,0.2208,0.2208,0.2299,0.2302,0.2305,0,0,0,0,0,0,0,0,0,0,0,0,0,0.2041,0.1985,0.2048,0.209,0.2095,0.214,0.2142,0.2144,0.2207,0.2208,0.2208,0.2208,0.2298,0.2302,0.2305,0.232,0,0,0.2315,0.2317,0,0,0,0,0,0,0,0,0.2037,0.2043,0.2083,0.2087,0.2092,0.216,0.2153,0.2202,0.2207,0.2168,0.2208,0.2208,0.2251,0.2258,0.228,0.2325,0.2329,0.2316,0.2318,0.2319,0.232,0,0,0,0,0,0,0,0.2033,0.204,0.2088,0.2084,0.209,0.2124,0.2132,0.2163,0.2209,0.2172,0.2176,0.2181,0.2254,0.2276,0.2282,0.233,0.2316,0.2319,0.2321,0.2322,0.2425,0.2426,0,0,0,0,0,0,0.2012,0.2036,0.2085,0.209,0.2061,0.2124,0.2134,0.2141,0.2209,0.2219,0.218,0.2183,0.227,0.2278,0.2286,0.2344,0.2319,0.2322,0.2324,0.2425,0.2425,0.2426,0,0,0,0,0,0,0.201,0.2016,0.2081,0.2063,0.2073,0.2124,0.2132,0.2142,0.2167,0.2215,0.2226,0.2194,0.2271,0.2281,0.2332,0.2347,0.2324,0.2327,0.2424,0.2425,0.2426,0.2438,0,0,0,0,0,0,0.2008,0.2015,0.202,0.2061,0.2073,0.2115,0.2132,0.2144,0.2168,0.2173,0.223,0.2239,0.2272,0.2327,0.2335,0.2351,0.233,0.2423,0.2424,0.2425,0.2436,0.2439,0.2441,0,0,0,0,0,0.2006,0.2017,0.2019,0.2025,0.2076,0.2115,0.2126,0.2165,0.2168,0.2187,0.223,0.2238,0.234,0.2331,0.234,0.2357,0.2422,0.2424,0.2425,0.2435,0.2438,0.2441,0,0,0,0,0,0,0.2001,0.2025,0.2029,0.2049,0.2078,0.2125,0.2146,0.2161,0.221,0.2213,0.2254,0.2268,0.2317,0.2332,0.232,0.2389,0.2379,0.2383,0.2383,0.2386,0.2389,0.2404,0.2333,0,0,0,0,0,0.1995,0.2008,0.2036,0.2053,0.2063,0.2099,0.212,0.2141,0.2183,0.2205,0.2245,0.2285,0.233,0.2354,0.2394,0.2432,0.2481,0.2446,0.2449,0.245,0.2469,0.2524,0.2533,0.2431,0.2431,0.2431,0,0,0.1998,0.2012,0.202,0.2051,0.2076,0.2114,0.2114,0.2143,0.2183,0.2206,0.2272,0.2296,0.2342,0.2395,0.2416,0.2411,0.2515,0.2452,0.2454,0.2472,0.2526,0.2537,0.2545,0.2432,0.2432,0.2432,0,0,0.2019,0.2019,0.2042,0.2065,0.2094,0.2119,0.2123,0.2165,0.2193,0.2249,0.2276,0.2312,0.2378,0.2419,0.2446,0.2482,0.2526,0.2482,0.251,0.2563,0.2572,0.258,0.2702,0.2721,0.2483,0.2483,0.2483,0,0.2027,0.2058,0.2057,0.2089,0.2115,0.2121,0.2161,0.2192,0.2249,0.2281,0.2272,0.2372,0.2397,0.2472,0.2485,0.2489,0.2548,0.2495,0.2567,0.2576,0.2584,0.2707,0.2727,0.2484,0.2484,0.2484,0.2483,0,0.2072,0.2098,0.2113,0.2156,0.2179,0.2212,0.2242,0.2273,0.2293,0.233,0.2394,0.2425,0.2491,0.2488,0.2503,0.2571,0.2606,0.2563,0.256,0.2596,0.2722,0.2744,0.2485,0.2485,0.2484,0.2484,0,0,0.2097,0.214,0.2149,0.2178,0.2216,0.2244,0.2295,0.2358,0.2415,0.2436,0.2512,0.2553,0.2558,0.2589,0.2593,0.2623,0.2737,0.2619,0.2621,0.2744,0.2916,0.3015,0.3049,0.27,0.2703,0.2705,0.2999,0,0.2144,0.2209,0.2221,0.2291,0.2324,0.2341,0.2401,0.2448,0.2493,0.2567,0.2574,0.265,0.2601,0.2636,0.2656,0.2724,0.2788,0.2666,0.2861,0.2869,0.2954,0.3074,0.2959,0.3216,0.302,0.3024,0.3026,0,0.219,0.2229,0.2296,0.2361,0.2381,0.2428,0.2515,0.257,0.2654,0.2691,0.2736,0.2756,0.283,0.2757,0.29,0.2827,0.2884,0.2916,0.2927,0.3029,0.3007,0.3139,0.3263,0.3183,0.306,0.3057,0.3055,0,0.2203,0.2283,0.2336,0.2357,0.2433,0.2476,0.2529,0.2613,0.2675,0.2779,0.2843,0.2907,0.2981,0.3017,0.3103,0.3011,0.3273,0.3153,0.3307,0.3317,0.3267,0.3268,0.3335,0.3259,0.3258,0.3257,0.3256,0,0.2243,0.2285,0.2351,0.2381,0.2462,0.2508,0.2608,0.267,0.2776,0.2877,0.2912,0.3015,0.3043,0.318,0.3196,0.3382,0.3369,0.3373,0.3406,0.3274,0.3273,0.3237,0.3178,0.3268,0.3266,0.3263,0.3262,0,0.2237,0.2281,0.2341,0.2432,0.2462,0.252,0.2636,0.2717,0.2827,0.296,0.3001,0.3153,0.3362,0.3438,0.3578,0.3564,0.3605,0.3741,0.3636,0.365,0.3657,0.3604,0.3601,0.3489,0.3944,0.3948,0.3952,0,0.2236,0.2266,0.2356,0.2397,0.2441,0.2532,0.2599,0.2718,0.2813,0.305,0.3125,0.3376,0.3522,0.3824,0.3899,0.4044,0.3836,0.3999,0.3772,0.3712,0.3674,0.3451,0.3336,0.3732,0.3733,0.3735,0.3736,0,0.2226,0.2254,0.23,0.2384,0.2457,0.2533,0.265,0.2716,0.2886,0.3024,0.3241,0.3377,0.3731,0.3854,0.4096,0.4128,0.3811,0.4032,0.3957,0.3541,0.331,0.32,0.3537,0.3747,0.3745,0.3745,0.3744,0.3744,0.2202,0.2227,0.2286,0.2362,0.2434,0.2503,0.2539,0.2679,0.2807,0.2985,0.3218,0.3399,0.3692,0.4017,0.4055,0.4092,0.3973,0.3934,0.3895,0.3691,0.3499,0.3929,0.4168,0.417,0.4171,0.4172,0.4173,0,0.217,0.2203,0.2267,0.233,0.2369,0.2438,0.2544,0.2562,0.2665,0.2902,0.3078,0.3395,0.3585,0.379,0.4006,0.3931,0.3643,0.3839,0.3433,0.3337,0.3734,0.3637,0.3786,0.3786,0.3786,0.3786,0.3786,0.3786,0.2151,0.2181,0.2214,0.2241,0.2284,0.2287,0.2316,0.2365,0.249,0.2677,0.2868,0.3087,0.3482,0.3803,0.3846,0.376,0.3435,0.3347,0.3296,0.3532,0.3532,0.3532,0.3425,0.3527,0.3527,0.2702,0.2696,0.2692]},{"header":{"parameterUnit":"m.s-1","parameterCategory":2,"la1":30.2991,"la2":30.254,"lo1":-89.0895,"lo2":-89.0444,"dy":0.0017,"dx":0.0017,"nx":28,"ny":28,"refTime":"2023-10-26T21:00:00:Z","depth":"0","parameterNumber":3,"parameterNumberName":"V-component_of_CURRENTS"},"data":[0,0,0,0,0,0,0,0,0,0,0,0,0,0,0,0,0,0,0,0,0,0,0,0,0,0,0,0,0,0,0,0,0,0,0,0,0,0,0,0,0,0,0,0,0,0,0,0,0,0,0,0,0,0,0,0,0,0,-0.0708,-0.0709,0,-0.0809,-0.081,-0.0811,-0.0867,-0.0867,-0.0868,-0.0868,-0.0863,-0.0862,-0.0862,0,0,0,0,0,0,0,0,0,0,0,0,0,-0.0535,-0.0538,-0.0708,-0.071,-0.0711,-0.0809,-0.081,-0.0811,-0.0867,-0.0867,-0.0868,-0.0868,-0.0863,-0.0862,-0.0862,0,0,0,0,0,0,0,0,0,0,0,0,0,-0.0619,-0.0539,-0.0708,-0.0752,-0.0757,-0.0809,-0.081,-0.0812,-0.0867,-0.0867,-0.0868,-0.0868,-0.0863,-0.0862,-0.0862,-0.0848,0,0,-0.086,-0.086,0,0,0,0,0,0,0,0,-0.0614,-0.0625,-0.0744,-0.0749,-0.0755,-0.0827,-0.0747,-0.0819,-0.0867,-0.0823,-0.0868,-0.0868,-0.0842,-0.0843,-0.086,-0.0848,-0.0848,-0.086,-0.0859,-0.0859,-0.0859,0,0,0,0,0,0,0,-0.0608,-0.0621,-0.0746,-0.0745,-0.0752,-0.0757,-0.0769,-0.0761,-0.0825,-0.0827,-0.0832,-0.0846,-0.0844,-0.0861,-0.086,-0.0848,-0.086,-0.0859,-0.0859,-0.0859,-0.0808,-0.0807,0,0,0,0,0,0,-0.0601,-0.0615,-0.0743,-0.075,-0.0686,-0.076,-0.0774,-0.0802,-0.0828,-0.0834,-0.0845,-0.0848,-0.0861,-0.0861,-0.086,-0.0837,-0.0859,-0.0858,-0.0858,-0.0809,-0.0808,-0.0806,0,0,0,0,0,0,-0.0597,-0.0612,-0.0739,-0.0685,-0.0702,-0.0763,-0.0794,-0.0804,-0.0824,-0.0843,-0.0847,-0.0855,-0.0862,-0.0861,-0.0852,-0.0837,-0.0858,-0.0858,-0.081,-0.0808,-0.0807,-0.0795,0,0,0,0,0,0,-0.0592,-0.061,-0.0613,-0.0685,-0.0705,-0.0763,-0.0794,-0.0806,-0.0832,-0.0837,-0.0852,-0.0853,-0.0862,-0.0853,-0.0851,-0.0836,-0.0857,-0.0811,-0.0809,-0.0807,-0.0797,-0.0793,-0.0791,0,0,0,0,0,-0.0585,-0.0586,-0.0613,-0.0628,-0.0713,-0.0763,-0.0773,-0.0816,-0.0832,-0.0836,-0.0847,-0.0852,-0.084,-0.0852,-0.085,-0.0835,-0.0812,-0.081,-0.0808,-0.0798,-0.0794,-0.0791,0,0,0,0,0,0,-0.0498,-0.0594,-0.0625,-0.0652,-0.0703,-0.0773,-0.0775,-0.0812,-0.0828,-0.0825,-0.0845,-0.0845,-0.0834,-0.083,-0.0843,-0.0813,-0.0824,-0.0822,-0.0817,-0.0814,-0.0811,-0.0798,-0.0857,0,0,0,0,0,-0.0485,-0.0516,-0.0603,-0.0617,-0.0645,-0.071,-0.0731,-0.0767,-0.0799,-0.0809,-0.0823,-0.0824,-0.0823,-0.0816,-0.0816,-0.0796,-0.0797,-0.0782,-0.0779,-0.0776,-0.0763,-0.0775,-0.0772,-0.0799,-0.0799,-0.0799,0,0,-0.0451,-0.0507,-0.0522,-0.0601,-0.0642,-0.0669,-0.0723,-0.0755,-0.0767,-0.08,-0.0801,-0.0817,-0.0817,-0.0805,-0.0797,-0.0799,-0.0766,-0.0773,-0.0772,-0.076,-0.0773,-0.077,-0.0768,-0.0798,-0.0798,-0.0798,0,0,-0.0398,-0.0454,-0.0466,-0.0511,-0.0579,-0.0625,-0.0634,-0.0707,-0.0729,-0.0743,-0.0766,-0.0778,-0.0772,-0.0779,-0.0778,-0.0752,-0.0756,-0.0743,-0.0711,-0.0723,-0.0721,-0.072,-0.0708,-0.0706,-0.0734,-0.0734,-0.0734,0,-0.0351,-0.0388,-0.0469,-0.0492,-0.0513,-0.0602,-0.0607,-0.0646,-0.0702,-0.0704,-0.0733,-0.0744,-0.0761,-0.0741,-0.0743,-0.0747,-0.0743,-0.073,-0.0721,-0.072,-0.0718,-0.0706,-0.0704,-0.0733,-0.0734,-0.0734,-0.0734,0,-0.0319,-0.0343,-0.0348,-0.0414,-0.0444,-0.0462,-0.0537,-0.0558,-0.0599,-0.0638,-0.0644,-0.0684,-0.0686,-0.0698,-0.0718,-0.0705,-0.0702,-0.0725,-0.0735,-0.0715,-0.0703,-0.0701,-0.0732,-0.0733,-0.0733,-0.0733,0,0,-0.023,-0.031,-0.031,-0.0323,-0.0405,-0.0426,-0.0442,-0.0481,-0.047,-0.0541,-0.0522,-0.0573,-0.0609,-0.061,-0.064,-0.066,-0.0667,-0.0685,-0.0686,-0.068,-0.0669,-0.0616,-0.0608,-0.0691,-0.069,-0.069,-0.0661,0,-0.0177,-0.0188,-0.0246,-0.0241,-0.0254,-0.0328,-0.033,-0.0373,-0.0408,-0.0411,-0.0479,-0.0479,-0.0569,-0.0565,-0.0607,-0.064,-0.066,-0.067,-0.0682,-0.0681,-0.0643,-0.0604,-0.0593,-0.0561,-0.0659,-0.0658,-0.0658,0,-0.0127,-0.0145,-0.0129,-0.016,-0.017,-0.017,-0.0179,-0.0194,-0.0231,-0.0253,-0.029,-0.0348,-0.0389,-0.0469,-0.0543,-0.0542,-0.0604,-0.0647,-0.0647,-0.0598,-0.0623,-0.0598,-0.0554,-0.077,-0.0655,-0.0655,-0.0655,0,-0.0027,-0.006,-0.0038,-0.0053,-0.0102,-0.0086,-0.0101,-0.0131,-0.0111,-0.0142,-0.0114,-0.021,-0.0215,-0.0329,-0.0442,-0.0491,-0.0503,-0.0581,-0.0591,-0.0588,-0.0578,-0.0574,-0.0749,-0.0634,-0.0634,-0.0634,-0.0634,0,0.0045,0.0061,0.0016,0.0026,0.0075,0.0009,0.0071,0.0045,0.0051,0.0119,-0.0016,0.004,-0.0182,-0.0227,-0.0371,-0.0443,-0.0451,-0.0564,-0.0572,-0.057,-0.0565,-0.0752,-0.0866,-0.0633,-0.0633,-0.0634,-0.0634,0,0.0146,0.0111,0.0135,0.0113,0.0122,0.0159,0.0191,0.0243,0.0226,0.0323,0.0323,0.0242,0.0189,-0.0002,-0.0151,-0.0305,-0.0508,-0.0436,-0.0403,-0.0408,-0.0647,-0.0757,-0.0871,-0.0976,-0.046,-0.0458,-0.0457,0,0.0192,0.0215,0.0224,0.0263,0.0263,0.031,0.0363,0.0344,0.0413,0.0479,0.0554,0.0514,0.0534,0.0337,0.0053,-0.0165,-0.0397,-0.0322,-0.0433,-0.0635,-0.0766,-0.0854,-0.0943,-0.0418,-0.0417,-0.0416,-0.0415,0,0.0284,0.029,0.0313,0.0398,0.0461,0.0529,0.0605,0.0683,0.0702,0.0804,0.0941,0.0967,0.0773,0.0563,0.0234,0.004,-0.0473,-0.0301,-0.0537,-0.0754,-0.0835,-0.0947,-0.0454,-0.0403,-0.0404,-0.0405,-0.0406,-0.0406,0.0361,0.0405,0.0448,0.0534,0.0619,0.0743,0.0833,0.094,0.1087,0.1252,0.1257,0.1362,0.0993,0.0553,0.0248,-0.0333,-0.0361,-0.0547,-0.0662,-0.0731,-0.0846,-0.0301,-0.0244,-0.0244,-0.0244,-0.0244,-0.0245,0,0.0441,0.0493,0.0583,0.0684,0.081,0.0827,0.0993,0.1106,0.1322,0.1493,0.1631,0.1557,0.1089,0.0557,-0.0187,-0.0626,-0.085,-0.089,-0.1073,-0.115,-0.0688,-0.0703,-0.0711,-0.0711,-0.0711,-0.071,-0.071,-0.071,0.0485,0.0578,0.0622,0.0825,0.0919,0.1092,0.1199,0.1391,0.1543,0.1797,0.1899,0.194,0.1571,0.0188,-0.0818,-0.1078,-0.1422,-0.1451,-0.1638,-0.1396,-0.1376,-0.1357,-0.1403,-0.1557,-0.1558,-0.2079,-0.2084,-0.2088]}],[{"header":{"parameterUnit":"m.s-1","parameterCategory":2,"la1":30.2991,"la2":30.254,"lo1":-89.0895,"lo2":-89.0444,"dy":0.0017,"dx":0.0017,"nx":28,"ny":28,"refTime":"2023-10-26T21:00:00:Z","depth":"2","parameterNumber":2,"parameterNumberName":"U-component_of_CURRENTS"},"data":[0,0,0,0,0,0,0,0,0,0,0,0,0,0,0,0,0,0,0,0,0,0,0,0,0,0,0,0,0,0,0,0,0,0,0,0,0,0,0,0,0,0,0,0,0,0,0,0,0,0,0,0,0,0,0,0,0,0,0.2538,0.2538,0,0.2546,0.2546,0.2545,0.2519,0.2519,0.2519,0.2519,0.2526,0.2527,0.2527,0,0,0,0,0,0,0,0,0,0,0,0,0,0.2394,0.2397,0.2538,0.2538,0.2539,0.2546,0.2546,0.2545,0.2519,0.2519,0.2519,0.2519,0.2526,0.2527,0.2527,0,0,0,0,0,0,0,0,0,0,0,0,0,0.2428,0.2398,0.2537,0.2533,0.2533,0.2546,0.2546,0.2545,0.2519,0.2519,0.2519,0.2519,0.2526,0.2527,0.2527,0.2533,0,0,0.2528,0.2528,0,0,0,0,0,0,0,0,0.2426,0.2432,0.2533,0.2533,0.2533,0.2538,0.2498,0.2543,0.2519,0.2517,0.2519,0.2519,0.2535,0.2535,0.2526,0.2533,0.2534,0.2528,0.2529,0.2529,0.2529,0,0,0,0,0,0,0,0.2424,0.2431,0.2533,0.2534,0.2534,0.2495,0.2499,0.2505,0.2521,0.2517,0.2517,0.253,0.2534,0.2526,0.2526,0.2534,0.2528,0.2529,0.2529,0.2529,0.2594,0.2595,0,0,0,0,0,0,0.2444,0.243,0.2533,0.2534,0.2487,0.2498,0.2503,0.2531,0.2521,0.2521,0.253,0.2529,0.2525,0.2526,0.2527,0.2566,0.2529,0.2529,0.2529,0.2592,0.2594,0.2596,0,0,0,0,0,0,0.2441,0.2454,0.2533,0.2487,0.2495,0.2503,0.2532,0.2531,0.2538,0.2532,0.2531,0.2541,0.2525,0.2526,0.2548,0.2565,0.2529,0.253,0.2591,0.2593,0.2595,0.2623,0,0,0,0,0,0,0.2437,0.2453,0.2468,0.2489,0.2499,0.2552,0.2533,0.2532,0.2549,0.2548,0.2542,0.2541,0.2525,0.2548,0.2548,0.2565,0.253,0.2589,0.2592,0.2594,0.262,0.2626,0.2631,0,0,0,0,0,0.2432,0.2443,0.2469,0.2482,0.2525,0.2553,0.2554,0.2552,0.255,0.2556,0.2557,0.2542,0.2565,0.2549,0.255,0.2566,0.2587,0.2591,0.2594,0.2618,0.2625,0.2631,0,0,0,0,0,0,0.2372,0.2444,0.2472,0.2502,0.2539,0.2552,0.255,0.2565,0.2569,0.2573,0.2558,0.2558,0.2584,0.2579,0.2561,0.2596,0.2575,0.2579,0.2593,0.26,0.2605,0.2601,0.2531,0,0,0,0,0,0.2377,0.2412,0.2473,0.2496,0.2519,0.2544,0.2553,0.2572,0.2584,0.2585,0.2578,0.2583,0.2596,0.2601,0.2606,0.2625,0.2652,0.2639,0.2645,0.2649,0.2648,0.2706,0.2717,0.2606,0.2606,0.2606,0,0,0.2357,0.2404,0.242,0.2488,0.2509,0.2542,0.2546,0.2579,0.2606,0.2588,0.2598,0.2603,0.2608,0.2626,0.2637,0.2623,0.2702,0.2653,0.2656,0.2653,0.2711,0.2722,0.2731,0.2608,0.2608,0.2608,0,0,0.2333,0.2384,0.2409,0.2446,0.2511,0.2542,0.2563,0.2599,0.2613,0.2641,0.2638,0.2657,0.266,0.2669,0.2675,0.2718,0.2731,0.2721,0.2737,0.2794,0.2804,0.2812,0.2888,0.2903,0.2719,0.2719,0.2719,0,0.2311,0.2359,0.2414,0.2448,0.2479,0.2548,0.258,0.261,0.2645,0.2664,0.265,0.2677,0.2681,0.2717,0.2725,0.2729,0.2768,0.2709,0.2801,0.2809,0.2818,0.2893,0.2909,0.2721,0.2721,0.2721,0.272,0,0.2325,0.235,0.2363,0.2444,0.2483,0.2523,0.2595,0.2637,0.2668,0.2689,0.2729,0.2732,0.2752,0.2755,0.2747,0.2807,0.2821,0.2804,0.2781,0.283,0.2907,0.2923,0.2723,0.2723,0.2722,0.2722,0,0,0.2301,0.2365,0.2367,0.2396,0.2492,0.253,0.2596,0.2673,0.2722,0.2742,0.2787,0.2797,0.2805,0.2815,0.2818,0.2849,0.2946,0.2846,0.2848,0.2916,0.3094,0.3025,0.3036,0.2943,0.2945,0.2947,0.3134,0,0.2298,0.2339,0.2387,0.243,0.2457,0.2548,0.2598,0.2678,0.2739,0.2798,0.2828,0.2872,0.283,0.2859,0.2881,0.2939,0.2986,0.2898,0.304,0.3045,0.2973,0.3051,0.2824,0.2963,0.315,0.3153,0.3155,0,0.2296,0.2327,0.2365,0.2426,0.2452,0.2501,0.2625,0.2682,0.2792,0.2838,0.2891,0.2929,0.3,0.2956,0.3067,0.3015,0.3057,0.3085,0.3093,0.3023,0.3004,0.294,0.2985,0.3182,0.318,0.3178,0.3176,0,0.225,0.2304,0.2337,0.2363,0.2457,0.2505,0.2571,0.2683,0.2751,0.2885,0.2952,0.3024,0.3088,0.3142,0.3192,0.3156,0.3307,0.3277,0.3256,0.3254,0.3084,0.3061,0.3357,0.3357,0.3357,0.3356,0.3356,0,0.2232,0.2251,0.2319,0.234,0.239,0.2472,0.2558,0.264,0.2774,0.2856,0.2965,0.3049,0.3135,0.3225,0.3252,0.3307,0.337,0.328,0.3297,0.3091,0.3067,0.3259,0.3245,0.3363,0.3362,0.336,0.3359,0,0.2179,0.2224,0.2254,0.2339,0.2363,0.2407,0.2541,0.2607,0.2749,0.2876,0.2934,0.3108,0.3239,0.331,0.3426,0.3391,0.3452,0.3449,0.3208,0.319,0.3356,0.3342,0.3483,0.3482,0.3482,0.3481,0.348,0,0.2163,0.2165,0.2227,0.2248,0.2292,0.2369,0.2417,0.2567,0.2654,0.2897,0.2952,0.3146,0.3233,0.3386,0.3402,0.3471,0.3485,0.3268,0.3141,0.3367,0.337,0.3357,0.3344,0.2956,0.2952,0.2948,0.2945,0,0.2118,0.2137,0.2167,0.2187,0.2236,0.2294,0.2387,0.2446,0.2639,0.2756,0.2919,0.302,0.3206,0.3175,0.3262,0.3256,0.3238,0.3191,0.3515,0.2938,0.2879,0.2878,0.2882,0.291,0.2913,0.2916,0.2918,0.2919,0.2083,0.2077,0.2099,0.212,0.2165,0.2203,0.2217,0.2334,0.2434,0.2585,0.2759,0.2839,0.2943,0.297,0.2919,0.2905,0.3116,0.2976,0.2985,0.2999,0.2883,0.2823,0.2824,0.2827,0.283,0.2832,0.2834,0,0.2018,0.2017,0.2029,0.2045,0.2045,0.2111,0.218,0.2181,0.2232,0.2413,0.2519,0.2411,0.2437,0.2542,0.2487,0.2512,0.2452,0.2401,0.2301,0.2341,0.2375,0.2221,0.1991,0.1987,0.1984,0.1981,0,0,0.1991,0.1966,0.1958,0.1916,0.193,0.1908,0.192,0.1935,0.203,0.2057,0.2114,0.2332,0.2486,0.2191,0.2189,0.208,0.2176,0.2003,0.2696,0.2621,0.2649,0.2746,0.256,0,0,0,0,0]},{"header":{"parameterUnit":"m.s-1","parameterCategory":2,"la1":30.2991,"la2":30.254,"lo1":-89.0895,"lo2":-89.0444,"dy":0.0017,"dx":0.0017,"nx":28,"ny":28,"refTime":"2023-10-26T21:00:00:Z","depth":"2","parameterNumber":3,"parameterNumberName":"V-component_of_CURRENTS"},"data":[0,0,0,0,0,0,0,0,0,0,0,0,0,0,0,0,0,0,0,0,0,0,0,0,0,0,0,0,0,0,0,0,0,0,0,0,0,0,0,0,0,0,0,0,0,0,0,0,0,0,0,0,0,0,0,0,0,0,-0.0012,-0.0013,0,-0.0094,-0.0095,-0.0096,-0.0179,-0.018,-0.0181,-0.0182,-0.0377,-0.0381,-0.0385,0,0,0,0,0,0,0,0,0,0,0,0,0,-0.0013,-0.0013,-0.0012,-0.0013,-0.0014,-0.0094,-0.0095,-0.0096,-0.0179,-0.018,-0.0181,-0.0182,-0.0375,-0.038,-0.0385,0,0,0,0,0,0,0,0,0,0,0,0,0,-0.0047,-0.0012,-0.0012,-0.0064,-0.0069,-0.0093,-0.0095,-0.0096,-0.0179,-0.018,-0.0182,-0.0183,-0.0374,-0.038,-0.0386,-0.0396,0,0,-0.0406,-0.0408,0,0,0,0,0,0,0,0,-0.0045,-0.0047,-0.0055,-0.006,-0.0066,-0.0126,-0.0167,-0.0202,-0.0178,-0.0138,-0.0182,-0.0184,-0.0302,-0.0314,-0.0326,-0.0405,-0.0413,-0.0406,-0.041,-0.0413,-0.0415,0,0,0,0,0,0,0,-0.0042,-0.0044,-0.0046,-0.0056,-0.0063,-0.0112,-0.0118,-0.0174,-0.0214,-0.0142,-0.0148,-0.0154,-0.0306,-0.032,-0.0332,-0.0416,-0.0406,-0.0412,-0.0416,-0.0418,-0.0542,-0.0542,0,0,0,0,0,0,-0.0023,-0.0041,-0.0043,-0.0048,-0.0057,-0.011,-0.0117,-0.0107,-0.0211,-0.0227,-0.0153,-0.0158,-0.0308,-0.0324,-0.0339,-0.0399,-0.0413,-0.0419,-0.0422,-0.0543,-0.0542,-0.0541,0,0,0,0,0,0,-0.0022,-0.0021,-0.004,-0.0047,-0.0053,-0.0108,-0.0096,-0.0108,-0.0141,-0.0218,-0.0237,-0.0177,-0.031,-0.033,-0.0408,-0.0406,-0.0422,-0.0427,-0.0543,-0.0542,-0.0542,-0.0493,0,0,0,0,0,0,-0.0021,-0.002,-0.0026,-0.0045,-0.0051,-0.0054,-0.0095,-0.0108,-0.0141,-0.0149,-0.0245,-0.0263,-0.0313,-0.0398,-0.0414,-0.0415,-0.0432,-0.0544,-0.0543,-0.0542,-0.0495,-0.0491,-0.0487,0,0,0,0,0,-0.0021,0.0004,-0.0025,-0.0026,-0.0049,-0.0053,-0.0061,-0.0108,-0.0141,-0.0147,-0.0223,-0.0261,-0.0402,-0.0404,-0.0423,-0.0425,-0.0544,-0.0543,-0.0542,-0.0497,-0.0492,-0.0487,0,0,0,0,0,0,-0.0007,-0.0003,-0.0034,-0.0015,-0.0041,-0.0067,-0.0074,-0.0111,-0.0173,-0.0196,-0.0271,-0.0294,-0.0354,-0.0394,-0.0394,-0.0454,-0.0472,-0.0475,-0.0432,-0.0427,-0.0423,-0.041,-0.0438,0,0,0,0,0,-0.0004,0.0012,-0.0004,-0.0001,-0.0,-0.0045,-0.0061,-0.0096,-0.0142,-0.0171,-0.0238,-0.0306,-0.0357,-0.0399,-0.0448,-0.0495,-0.0515,-0.0502,-0.0498,-0.0494,-0.0494,-0.0529,-0.0528,-0.0537,-0.0537,-0.0537,0,0,-0.0012,-0.0,-0.0003,0.0001,-0.0019,-0.0019,-0.0058,-0.0076,-0.0104,-0.0184,-0.0248,-0.0299,-0.0365,-0.0413,-0.0441,-0.0454,-0.0495,-0.0492,-0.0489,-0.0491,-0.0527,-0.0527,-0.0526,-0.0537,-0.0537,-0.0537,0,0,0.0016,0.0009,0.0036,0.0032,0.0014,-0.0013,-0.0018,-0.0055,-0.0097,-0.0159,-0.0215,-0.0266,-0.0357,-0.0395,-0.0427,-0.0428,-0.0468,-0.0441,-0.0421,-0.0454,-0.0454,-0.0454,-0.0449,-0.0449,-0.0443,-0.0443,-0.0443,0,0.0006,0.0042,0.0035,0.0068,0.0059,-0.0004,0.0006,-0.0038,-0.0111,-0.014,-0.0175,-0.0282,-0.0342,-0.0388,-0.0392,-0.0418,-0.0437,-0.0438,-0.0449,-0.045,-0.0451,-0.0446,-0.0447,-0.044,-0.044,-0.0441,-0.0441,0,0.0044,0.0075,0.0099,0.0112,0.0098,0.01,0.005,0.0005,-0.0059,-0.0102,-0.0168,-0.0244,-0.0304,-0.0322,-0.037,-0.0398,-0.0406,-0.0436,-0.0462,-0.0447,-0.0443,-0.0444,-0.0437,-0.0437,-0.0438,-0.0439,0,0,0.0064,0.0111,0.0126,0.0139,0.0122,0.0119,0.0074,0.0029,0.0009,-0.0082,-0.0102,-0.02,-0.0238,-0.0275,-0.0328,-0.0365,-0.0383,-0.0409,-0.0412,-0.0403,-0.0436,-0.0442,-0.0445,-0.0427,-0.0428,-0.0428,-0.042,0,0.01,0.0169,0.0171,0.0202,0.0235,0.0171,0.0155,0.0095,0.0026,-0.0009,-0.0099,-0.0138,-0.0221,-0.0243,-0.0298,-0.0356,-0.0391,-0.0381,-0.0454,-0.0455,-0.0463,-0.0449,-0.0415,-0.0407,-0.0422,-0.0423,-0.0423,0,0.0161,0.0202,0.0245,0.028,0.0286,0.0277,0.0232,0.0206,0.0136,0.0095,0.0021,-0.0053,-0.0125,-0.019,-0.0301,-0.0296,-0.0369,-0.0417,-0.0418,-0.0447,-0.0466,-0.0432,-0.041,-0.0426,-0.0426,-0.0426,-0.0426,0,0.0208,0.0268,0.0295,0.0303,0.0316,0.0305,0.0292,0.0239,0.0237,0.0159,0.0164,0.004,0.002,-0.0118,-0.0248,-0.0283,-0.0345,-0.04,-0.0468,-0.0467,-0.0463,-0.0462,-0.048,-0.048,-0.048,-0.048,-0.048,0,0.0271,0.0309,0.0322,0.0344,0.039,0.0369,0.0392,0.0362,0.0346,0.0381,0.0232,0.0239,0.0032,-0.0048,-0.02,-0.0322,-0.0312,-0.0458,-0.0473,-0.0441,-0.0438,-0.0485,-0.0486,-0.048,-0.048,-0.048,-0.048,0,0.0328,0.0335,0.0389,0.0408,0.0425,0.0451,0.0486,0.0508,0.0486,0.0527,0.051,0.0407,0.0296,0.0103,-0.0073,-0.0216,-0.0359,-0.0406,-0.0336,-0.0346,-0.047,-0.0469,-0.0493,-0.0493,-0.0493,-0.0493,-0.0494,0,0.0356,0.0394,0.0446,0.0484,0.0494,0.0536,0.0588,0.0584,0.0617,0.0638,0.0679,0.0581,0.0517,0.0268,-0.001,-0.0258,-0.031,-0.0378,-0.0461,-0.0463,-0.0476,-0.0473,-0.0471,-0.0416,-0.0416,-0.0416,-0.0415,0,0.042,0.0432,0.0466,0.0563,0.0618,0.0687,0.075,0.0808,0.0825,0.0865,0.0909,0.0858,0.0615,0.0352,0.0014,-0.0156,-0.035,-0.038,-0.0392,-0.0427,-0.0393,-0.0405,-0.0405,-0.0412,-0.0412,-0.0413,-0.0413,-0.0413,0.0459,0.0499,0.0554,0.0638,0.072,0.0824,0.0892,0.0961,0.105,0.1116,0.108,0.1036,0.0739,0.0296,-0.0005,-0.0316,-0.0326,-0.044,-0.044,-0.0441,-0.0442,-0.0413,-0.0432,-0.0432,-0.0433,-0.0433,-0.0433,0,0.0512,0.0555,0.0633,0.0733,0.083,0.0865,0.0998,0.1063,0.1179,0.1239,0.1255,0.1008,0.0704,0.0374,-0.0096,-0.0389,-0.0415,-0.0461,-0.0442,-0.0442,-0.0443,-0.0445,-0.0435,-0.0436,-0.0437,-0.0438,0,0,0.0539,0.0614,0.0653,0.081,0.0887,0.1023,0.1104,0.1211,0.128,0.134,0.1324,0.1236,0.0826,0.0491,0.0093,-0.0174,-0.0236,-0.0215,-0.0181,-0.0111,-0.0109,-0.0396,-0.0395,0,0,0,0,0]}],[{"header":{"parameterUnit":"m.s-1","parameterCategory":2,"la1":30.2991,"la2":30.254,"lo1":-89.0895,"lo2":-89.0444,"dy":0.0017,"dx":0.0017,"nx":28,"ny":28,"refTime":"2023-10-26T21:00:00:Z","depth":"4","parameterNumber":2,"parameterNumberName":"U-component_of_CURRENTS"},"data":[0,0,0,0,0,0,0,0,0,0,0,0,0,0,0,0,0,0,0,0,0,0,0,0,0,0,0,0,0,0,0,0,0,0,0,0,0,0,0,0,0,0,0,0,0,0,0,0,0,0,0,0,0,0,0,0,0,0,0.1179,0.118,0,0.1245,0.1246,0.1246,0.1317,0.1318,0.1319,0.1319,0.1398,0.1399,0.14,0,0,0,0,0,0,0,0,0,0,0,0,0,0.1111,0.1112,0.1179,0.118,0.118,0.1245,0.1246,0.1247,0.1317,0.1318,0.1319,0.132,0.1397,0.1399,0.14,0,0,0,0,0,0,0,0,0,0,0,0,0,0.1156,0.1112,0.1179,0.1222,0.1226,0.1244,0.1246,0.1247,0.1316,0.1318,0.1319,0.132,0.1397,0.1399,0.14,0.1387,0,0,0.1406,0.1407,0,0,0,0,0,0,0,0,0.1154,0.1159,0.1215,0.1219,0.1224,0.1273,0.125,0.1294,0.1316,0.1284,0.1319,0.1321,0.1355,0.136,0.1372,0.139,0.1394,0.1407,0.1408,0.1409,0.1409,0,0,0,0,0,0,0,0.1151,0.1157,0.1207,0.1215,0.1221,0.1237,0.1245,0.1259,0.1313,0.1287,0.1292,0.1296,0.1358,0.137,0.1374,0.1395,0.1406,0.1408,0.1409,0.141,0.1511,0.1513,0,0,0,0,0,0,0.1138,0.1153,0.1204,0.1208,0.119,0.1237,0.1246,0.1257,0.1313,0.1322,0.1295,0.1299,0.1366,0.1372,0.1377,0.1456,0.1409,0.141,0.1411,0.151,0.1511,0.1513,0,0,0,0,0,0,0.1137,0.1142,0.1202,0.1181,0.1189,0.1237,0.1248,0.1257,0.1311,0.1318,0.1328,0.1343,0.1367,0.1375,0.1417,0.1456,0.1411,0.1413,0.1508,0.151,0.1512,0.1553,0,0,0,0,0,0,0.1134,0.1141,0.1171,0.118,0.119,0.1238,0.1247,0.1258,0.1308,0.1316,0.1362,0.1368,0.1369,0.1414,0.1419,0.1457,0.1414,0.1506,0.1509,0.1512,0.155,0.1556,0.1562,0,0,0,0,0,0.1132,0.1159,0.1172,0.1179,0.122,0.1239,0.1247,0.1285,0.131,0.1338,0.1365,0.1369,0.1436,0.1416,0.1422,0.1462,0.1504,0.1508,0.1511,0.1547,0.1555,0.1562,0,0,0,0,0,0,0.1144,0.1168,0.1183,0.1217,0.1239,0.1251,0.1283,0.1307,0.1351,0.1367,0.138,0.1388,0.1446,0.1445,0.1423,0.1501,0.1475,0.1479,0.15,0.1508,0.1514,0.1536,0.1416,0,0,0,0,0,0.1157,0.1189,0.1203,0.1234,0.1245,0.1272,0.1295,0.1316,0.1342,0.1366,0.1398,0.1429,0.1457,0.1476,0.1501,0.1533,0.1547,0.1566,0.1572,0.1577,0.16,0.163,0.1641,0.1524,0.1524,0.1524,0,0,0.1161,0.1187,0.1201,0.124,0.1259,0.1278,0.1291,0.1328,0.1352,0.1364,0.1425,0.1458,0.1473,0.1516,0.1542,0.1524,0.162,0.1582,0.1586,0.1607,0.1635,0.1646,0.1656,0.1527,0.1526,0.1526,0,0,0.1178,0.1215,0.1242,0.1264,0.1302,0.1311,0.133,0.1365,0.1395,0.144,0.1462,0.1522,0.1557,0.1584,0.1596,0.1652,0.1657,0.1662,0.1707,0.1735,0.1744,0.1753,0.1792,0.1803,0.1658,0.1658,0.1658,0,0.1186,0.1225,0.1253,0.1283,0.1304,0.1329,0.1353,0.1375,0.1425,0.1455,0.1468,0.1568,0.1591,0.1645,0.1673,0.1669,0.1685,0.1672,0.1742,0.1751,0.176,0.1797,0.1809,0.1661,0.166,0.166,0.166,0,0.1214,0.1253,0.1269,0.1314,0.1342,0.1367,0.1388,0.1432,0.1473,0.15,0.1585,0.1624,0.1689,0.1706,0.171,0.1787,0.1781,0.175,0.1721,0.1774,0.181,0.1822,0.1664,0.1663,0.1663,0.1662,0,0,0.1192,0.1273,0.128,0.1312,0.1363,0.1382,0.1424,0.1468,0.1512,0.1574,0.1647,0.1714,0.1762,0.1782,0.1806,0.184,0.1922,0.183,0.183,0.1865,0.1998,0.1901,0.1904,0.1896,0.1898,0.19,0.2001,0,0.1203,0.1268,0.1304,0.1354,0.1383,0.1424,0.146,0.1509,0.1558,0.1634,0.1693,0.1774,0.1775,0.1835,0.1869,0.1915,0.1956,0.1899,0.1945,0.1948,0.1851,0.1916,0.1907,0.201,0.2013,0.2015,0.2017,0,0.121,0.1258,0.1317,0.1388,0.1404,0.1441,0.1519,0.1558,0.1647,0.1694,0.1781,0.1834,0.1933,0.192,0.2015,0.1977,0.2008,0.2028,0.2031,0.1938,0.1873,0.1946,0.2039,0.2037,0.2035,0.2034,0.2032,0,0.1183,0.126,0.1315,0.1339,0.142,0.1464,0.1513,0.1592,0.1644,0.1759,0.1824,0.1914,0.2006,0.2037,0.2104,0.2066,0.2199,0.2137,0.2078,0.2072,0.2109,0.2098,0.221,0.221,0.2209,0.2209,0.2209,0,0.1173,0.1214,0.1316,0.1342,0.1407,0.1473,0.1551,0.1607,0.1719,0.1793,0.1871,0.1952,0.2045,0.2126,0.214,0.216,0.2226,0.2115,0.2096,0.2125,0.2115,0.2118,0.2106,0.2213,0.2212,0.2211,0.2211,0,0.1133,0.12,0.1265,0.1365,0.14,0.1455,0.1575,0.1623,0.1734,0.1843,0.1897,0.2029,0.2123,0.2192,0.2281,0.2216,0.2235,0.2228,0.2295,0.2275,0.2078,0.2068,0.215,0.2148,0.2145,0.2144,0.2142,0,0.1119,0.1154,0.1272,0.1312,0.1364,0.1454,0.1503,0.1623,0.1679,0.1869,0.1913,0.2076,0.2145,0.2184,0.2256,0.2279,0.2253,0.2243,0.2126,0.2101,0.2075,0.2068,0.206,0.2139,0.2138,0.2138,0.2137,0,0.1083,0.1141,0.1195,0.1279,0.1343,0.1404,0.1496,0.1532,0.1674,0.1795,0.1894,0.1962,0.2079,0.2133,0.2191,0.2191,0.2225,0.222,0.2222,0.2112,0.2089,0.2063,0.2058,0.213,0.2131,0.2132,0.2132,0,0.1058,0.1085,0.1166,0.1229,0.13,0.1333,0.1389,0.1463,0.1542,0.1739,0.1781,0.1932,0.2075,0.2093,0.2135,0.2143,0.2091,0.1995,0.2007,0.2016,0.1924,0.1871,0.1852,0,0,0,0,0,0.1021,0.1047,0.1105,0.1162,0.1227,0.1274,0.1368,0.1426,0.1566,0.1595,0.1686,0.1781,0.1868,0.1948,0.1927,0.2069,0.2092,0.2035,0.1985,0.2089,0.2098,0.2,0,0,0,0,0,0,0.0999,0.1052,0.108,0.1092,0.112,0.1178,0.1234,0.1329,0.1348,0.1503,0.1557,0.1683,0.1787,0.1873,0.1901,0.1924,0.1857,0.2136,0.2131,0.2085,0.2092,0.2099,0.2002,0,0,0,0,0]},{"header":{"parameterUnit":"m.s-1","parameterCategory":2,"la1":30.2991,"la2":30.254,"lo1":-89.0895,"lo2":-89.0444,"dy":0.0017,"dx":0.0017,"nx":28,"ny":28,"refTime":"2023-10-26T21:00:00:Z","depth":"4","parameterNumber":3,"parameterNumberName":"V-component_of_CURRENTS"},"data":[0,0,0,0,0,0,0,0,0,0,0,0,0,0,0,0,0,0,0,0,0,0,0,0,0,0,0,0,0,0,0,0,0,0,0,0,0,0,0,0,0,0,0,0,0,0,0,0,0,0,0,0,0,0,0,0,0,0,0.0288,0.0287,0,0.0223,0.0222,0.0221,0.0175,0.0175,0.0175,0.0175,0.011,0.0108,0.0107,0,0,0,0,0,0,0,0,0,0,0,0,0,0.0303,0.0303,0.0288,0.0287,0.0286,0.0223,0.0222,0.0221,0.0175,0.0175,0.0175,0.0175,0.011,0.0108,0.0107,0,0,0,0,0,0,0,0,0,0,0,0,0,0.0271,0.0303,0.0288,0.0257,0.0254,0.0224,0.0222,0.0221,0.0176,0.0175,0.0175,0.0175,0.0111,0.0109,0.0106,0.0097,0,0,0.0099,0.0098,0,0,0,0,0,0,0,0,0.0273,0.0271,0.0262,0.0259,0.0256,0.0209,0.0204,0.018,0.0176,0.0203,0.0175,0.0175,0.0144,0.0139,0.0125,0.0094,0.0092,0.0099,0.0098,0.0097,0.0096,0,0,0,0,0,0,0,0.0276,0.0273,0.026,0.0262,0.0258,0.0224,0.022,0.0199,0.0175,0.0201,0.0198,0.0194,0.0142,0.0127,0.0123,0.0091,0.0099,0.0097,0.0096,0.0095,0.0043,0.0043,0,0,0,0,0,0,0.0292,0.0275,0.0262,0.0258,0.0266,0.0224,0.0219,0.0223,0.0175,0.0168,0.0194,0.0192,0.0131,0.0126,0.0121,0.0122,0.0097,0.0094,0.0093,0.0043,0.0043,0.0043,0,0,0,0,0,0,0.0292,0.0291,0.0265,0.0266,0.0261,0.0225,0.0229,0.0221,0.0208,0.017,0.0163,0.0189,0.0131,0.0124,0.0105,0.0119,0.0093,0.0091,0.0043,0.0043,0.0043,0.0115,0,0,0,0,0,0,0.0293,0.0292,0.03,0.0268,0.0261,0.0254,0.0229,0.022,0.0207,0.0203,0.0163,0.0156,0.013,0.0109,0.0103,0.0115,0.0089,0.0043,0.0043,0.0043,0.0113,0.0118,0.0122,0,0,0,0,0,0.0294,0.0301,0.0301,0.0299,0.0274,0.0254,0.0248,0.0219,0.0207,0.0205,0.0177,0.0158,0.0104,0.0107,0.01,0.0112,0.0043,0.0043,0.0043,0.0111,0.0117,0.0122,0,0,0,0,0,0,0.0306,0.0296,0.0295,0.0299,0.0285,0.0248,0.0244,0.0225,0.0199,0.0198,0.0159,0.0151,0.0137,0.0112,0.0116,0.0094,0.007,0.0068,0.0124,0.0129,0.0134,0.0146,0.0087,0,0,0,0,0,0.0316,0.0323,0.0307,0.031,0.0308,0.0279,0.0268,0.0252,0.0225,0.0214,0.0185,0.0155,0.0131,0.0121,0.0094,0.0087,0.005,0.0087,0.0092,0.0096,0.01,0.006,0.0061,0.0043,0.0043,0.0043,0,0,0.0321,0.0318,0.0321,0.0314,0.0302,0.0302,0.0271,0.0262,0.0263,0.0212,0.0203,0.017,0.0131,0.012,0.0112,0.0103,0.008,0.0096,0.01,0.0102,0.006,0.0062,0.0063,0.0043,0.0043,0.0043,0,0,0.0331,0.0336,0.0345,0.0342,0.0334,0.0319,0.0321,0.0294,0.0286,0.0273,0.0236,0.0213,0.0176,0.0153,0.0136,0.0149,0.0102,0.0138,0.0177,0.0139,0.014,0.0141,0.0091,0.0086,0.0145,0.0145,0.0145,0,0.0338,0.0349,0.0342,0.0351,0.0352,0.0333,0.034,0.0332,0.0301,0.0297,0.0281,0.022,0.0193,0.0175,0.0182,0.0162,0.0124,0.0164,0.0146,0.0146,0.0146,0.0094,0.0088,0.0148,0.0148,0.0147,0.0147,0,0.0353,0.0366,0.0372,0.0384,0.0383,0.0387,0.0382,0.0384,0.0371,0.0353,0.0332,0.0288,0.025,0.0241,0.0218,0.0204,0.0171,0.0156,0.0138,0.0153,0.0096,0.0089,0.0153,0.0152,0.0151,0.015,0,0,0.0356,0.0379,0.0382,0.0398,0.0403,0.0404,0.0422,0.0423,0.0431,0.0403,0.0395,0.036,0.0328,0.0306,0.0269,0.0243,0.0212,0.0206,0.0203,0.0165,0.0113,0.0078,0.0067,0.0192,0.0192,0.0191,0.0072,0,0.037,0.0397,0.0403,0.043,0.0444,0.0448,0.0465,0.0467,0.0457,0.0447,0.041,0.0383,0.0356,0.0334,0.0307,0.023,0.0197,0.0245,0.0095,0.0091,0.0067,0.0059,0.0189,0.0067,0.0065,0.0064,0.0063,0,0.0381,0.0399,0.0429,0.0462,0.0469,0.0485,0.0508,0.0519,0.0512,0.0502,0.0473,0.0431,0.0389,0.0361,0.025,0.0279,0.0206,0.0148,0.0142,0.0081,0.0044,0.0047,0.0049,0.0051,0.0052,0.0052,0.0053,0,0.0382,0.0417,0.0444,0.0456,0.0488,0.0509,0.0526,0.0533,0.055,0.053,0.0521,0.0461,0.0419,0.0333,0.0217,0.023,0.0081,0.008,-0.0022,-0.0027,0.0009,0.0009,0.0002,0.0002,0.0002,0.0003,0.0003,0,0.0392,0.0414,0.0452,0.0468,0.051,0.0524,0.0559,0.0572,0.0579,0.0593,0.0545,0.0524,0.041,0.0313,0.0216,0.0066,0.0074,-0.0022,-0.0058,0.004,0.0045,0.0003,0.0005,-0.0002,-0.0001,-0.0,0.0001,0,0.0387,0.0411,0.0446,0.0491,0.0512,0.054,0.0593,0.0618,0.0619,0.063,0.0624,0.0557,0.0429,0.0296,0.0135,0.0056,-0.0077,-0.0134,-0.0035,-0.0063,-0.0159,-0.0152,-0.0252,-0.0254,-0.0256,-0.0258,-0.0259,0,0.0387,0.0404,0.0463,0.0494,0.0519,0.0567,0.0607,0.0637,0.0663,0.065,0.0654,0.0539,0.0475,0.0223,0.0082,-0.0131,-0.0153,-0.0225,-0.0169,-0.0159,-0.0184,-0.0174,-0.0165,-0.0262,-0.0262,-0.0263,-0.0263,0,0.0385,0.0407,0.0441,0.0506,0.0557,0.0613,0.0668,0.0691,0.0719,0.0715,0.0675,0.0553,0.0395,0.0218,0.0033,-0.0107,-0.0175,-0.0244,-0.024,-0.0189,-0.0172,-0.0193,-0.0182,-0.027,-0.0269,-0.0268,-0.0268,0,0.0387,0.041,0.0461,0.052,0.0588,0.065,0.0675,0.0707,0.0733,0.0724,0.0703,0.0552,0.0465,0.0226,0.0067,-0.0092,-0.0115,-0.014,-0.0142,-0.0137,-0.0065,-0.0024,-0.0112,0,0,0,0,0,0.0389,0.0419,0.0473,0.0542,0.0611,0.0656,0.0719,0.0738,0.076,0.0741,0.0729,0.0589,0.0352,0.025,0.0086,0.0023,-0.0154,-0.0174,-0.0186,-0.0305,-0.0297,-0.0235,0,0,0,0,0,0,0.0392,0.0439,0.0469,0.0556,0.0608,0.0688,0.0734,0.0747,0.0737,0.0733,0.0609,0.0553,0.0317,0.0444,0.0085,0.0035,0.0007,-0.0286,-0.0289,-0.0309,-0.0302,-0.0296,-0.023,0,0,0,0,0]}]]